TimeEST,TemperatureF,Dew PointF,Humidity,Sea Level PressureIn,VisibilityMPH,Wind Direction,Wind SpeedMPH,Gust SpeedMPH,PrecipitationIn,Events,Conditions,WindDirDegrees,DateUTC
12:55 AM,39.9,30.9,70,29.78,10.0,WSW,16.1,24.2,N/A,,Clear,250,2013-11-14 05:55:00
1:55 AM,39.9,30.9,70,29.78,10.0,WSW,17.3,26.5,N/A,,Clear,240,2013-11-14 06:55:00
2:55 AM,39.0,30.0,70,29.80,10.0,WSW,13.8,24.2,N/A,,Clear,240,2013-11-14 07:55:00
3:55 AM,39.0,30.0,70,29.80,10.0,SW,16.1,21.9,N/A,,Clear,230,2013-11-14 08:55:00
4:55 AM,37.9,28.9,70,29.79,10.0,SW,13.8,21.9,N/A,,Clear,230,2013-11-14 09:55:00
5:55 AM,37.9,28.9,70,29.80,10.0,WSW,9.2,-,N/A,,Clear,240,2013-11-14 10:55:00
6:55 AM,37.0,28.9,73,29.81,10.0,West,10.4,-,N/A,,Clear,260,2013-11-14 11:55:00
7:55 AM,37.0,28.9,73,29.81,10.0,WSW,5.8,-,N/A,,Mostly Cloudy,250,2013-11-14 12:55:00
8:55 AM,39.9,30.0,68,29.81,10.0,WSW,5.8,-,N/A,,Mostly Cloudy,250,2013-11-14 13:55:00
9:55 AM,42.1,30.0,62,29.81,10.0,SW,11.5,-,N/A,,Mostly Cloudy,230,2013-11-14 14:55:00
10:55 AM,42.1,32.0,67,29.79,10.0,SSW,9.2,-,0.00,Rain,Light Rain,210,2013-11-14 15:55:00
11:55 AM,44.1,32.0,63,29.79,10.0,Variable,6.9,-,0.00,,Overcast,0,2013-11-14 16:55:00
12:55 PM,43.0,34.0,71,29.78,10.0,WSW,9.2,-,0.00,Rain,Light Rain,240,2013-11-14 17:55:00
1:55 PM,43.0,34.0,71,29.79,10.0,WSW,10.4,-,0.00,Rain,Light Rain,250,2013-11-14 18:55:00
2:24 PM,42.1,34.0,73,29.77,10.0,WSW,8.1,-,0.00,,Overcast,250,2013-11-14 19:24:00
2:55 PM,42.1,34.0,73,29.78,10.0,WSW,9.2,-,0.00,,Overcast,240,2013-11-14 19:55:00
3:19 PM,42.1,34.0,73,29.76,10.0,SW,6.9,-,N/A,,Mostly Cloudy,230,2013-11-14 20:19:00
3:52 PM,41.0,33.8,76,29.77,10.0,WSW,5.8,-,N/A,,Overcast,240,2013-11-14 20:52:00
3:55 PM,41.0,34.0,76,29.78,10.0,WSW,3.5,-,N/A,,Overcast,250,2013-11-14 20:55:00
4:55 PM,39.9,34.0,79,29.80,6.0,WSW,8.1,-,0.01,Rain,Light Rain,250,2013-11-14 21:55:00
5:55 PM,39.0,36.0,89,29.81,5.0,WSW,8.1,-,0.06,Rain,Rain,240,2013-11-14 22:55:00
6:32 PM,39.0,36.0,89,29.80,4.0,WSW,10.4,-,0.05,Rain,Rain,240,2013-11-14 23:32:00
6:55 PM,37.9,36.0,93,29.81,5.0,WSW,8.1,-,0.09,Rain,Light Rain,240,2013-11-14 23:55:00
7:55 PM,37.9,35.1,89,29.79,7.0,WSW,5.8,-,0.03,Rain,Light Rain,240,2013-11-15 00:55:00
8:19 PM,37.9,35.1,89,29.78,7.0,WSW,4.6,-,0.00,Rain,Light Rain,240,2013-11-15 01:19:00
8:42 PM,37.9,35.1,89,29.79,6.0,SW,5.8,-,0.00,,Overcast,230,2013-11-15 01:42:00
8:55 PM,37.9,35.1,89,29.81,6.0,WSW,5.8,-,0.00,,Overcast,240,2013-11-15 01:55:00
9:55 PM,37.9,35.1,89,29.81,6.0,SW,4.6,-,N/A,,Overcast,230,2013-11-15 02:55:00
10:37 PM,37.9,36.0,93,29.81,6.0,SW,3.5,-,N/A,,Overcast,230,2013-11-15 03:37:00
10:55 PM,37.9,36.0,93,29.82,5.0,Calm,Calm,-,N/A,,Overcast,0,2013-11-15 03:55:00
11:55 PM,37.9,36.0,93,29.82,6.0,Calm,Calm,-,0.00,Rain,Light Rain,0,2013-11-15 04:55:00